Simultaneous Nadir Overpasses (SNOs) Predictions

Prediction of SNOs between GOES-17 and METOP-A Satellite Orbit:

Table of predicted SNOs for the next 14.0 days since TLE Epoch: 8/2/2019
Index Date Time (GOES-17) GOES-17 Lat,Lon METOP-A Lat,Lon Distance(km) Time Diff (sec)
1 08/04/2019 06:27:48 0.01,-137.20 -0.81,-140.91 422.14 80
2 08/05/2019 06:04:19 0.01,-137.20 0.27,-135.88 149.31 80
3 08/06/2019 18:25:34 -0.01,-137.20 0.71,-140.41 365.37 80
4 08/07/2019 18:02:02 -0.01,-137.20 -0.39,-135.37 207.83 80
5 08/09/2019 06:23:20 0.00,-137.18 -0.59,-139.90 309.50 80
6 08/10/2019 05:59:44 0.01,-137.17 0.54,-134.85 265.21 80
7 08/11/2019 18:20:45 -0.00,-137.16 0.49,-139.31 244.54 80
8 08/12/2019 17:57:05 -0.01,-137.15 -0.66,-134.24 331.85 80
9 08/14/2019 06:18:09 0.00,-137.13 -0.35,-138.71 180.27 80
10 08/15/2019 05:54:23 0.01,-137.12 0.76,-133.62 397.78 80
11 08/16/2019 18:15:13 -0.01,-137.10 0.19,-138.04 106.70 80




NCC Satellite Simultaneous Nadir Overpasses (SNOs) Prediction Service
